DW2770 Cefalu IT current weather conditions

sailwx.info

Wind from 180 at 7 knots gusting 10

Air temperature 22.2° C
Dewpoint 11.9° C

Last reported at 2020-Sep-28 14:55 UTC.
Time now 2020-Sep-28 15:30 UTC

Location: N 38°02' E 014°02'.
View on Google Maps.

See reports from other nearby stations

  
Tides and Currents Weather Stations Pressure Air Temp Water Temp Dewpoint Dewpoint Depression Visibility Wind Speed Wind Dir Waves Ship Positions
date/time (UTC)wind fromknots sea level pressurealtimeterstation pressurevisibilityair tempwater tempwave heightnotes
2020-Sep-28 14:55 180 7 gusting 10 22.2
2020-Sep-28 14:45 203 13 gusting 13 22.2
2020-Sep-28 14:40 225 11 gusting 11 22.2
2020-Sep-28 14:35 225 11 gusting 11 22.2
2020-Sep-28 14:25 135 8 gusting 10 22.2
2020-Sep-28 14:15 225 10 gusting 10 22.2
2020-Sep-28 14:10 225 8 gusting 8 22.2
2020-Sep-28 14:00 135 7 gusting 10 22.8
2020-Sep-28 13:50 293 5 gusting 6 22.8
2020-Sep-28 13:45 203 6 gusting 6 22.8
2020-Sep-28 13:40 338 6 gusting 6 22.8
2020-Sep-28 13:35 338 5 gusting 6 22.8
2020-Sep-28 13:30 270 5 gusting 8 22.8
2020-Sep-28 13:25 270 8 gusting 8 22.8
2020-Sep-28 13:20 293 8 gusting 9 22.8
2020-Sep-28 13:15 315 11 gusting 11 23.3
2020-Sep-28 13:10 315 2 gusting 11 23.3
2020-Sep-28 13:05 270 6 gusting 7 22.8
2020-Sep-28 13:00 338 5 gusting 5 23.3
2020-Sep-28 12:55 338 5 gusting 8 22.8
2020-Sep-28 12:45 270 4 gusting 6 22.8
2020-Sep-28 12:40 248 6 gusting 10 22.8
2020-Sep-28 12:35 225 4 gusting 10 22.8
2020-Sep-28 12:30 22.8
2020-Sep-28 12:25 270 4 gusting 4 22.8
2020-Sep-28 12:20 293 3 gusting 11 23.3
2020-Sep-28 12:15 225 4 gusting 10 23.3
2020-Sep-28 12:10 270 5 gusting 11 23.3
2020-Sep-28 12:05 293 11 gusting 11 23.3
2020-Sep-28 12:00 180 3 gusting 10 23.3
2020-Sep-28 11:55 270 5 gusting 6 23.3
2020-Sep-28 11:50 203 6 gusting 6 23.3
2020-Sep-28 11:40 203 7 gusting 7 23.3
2020-Sep-28 11:35 270 6 gusting 11 23.3
2020-Sep-28 11:30 248 2 gusting 8 23.3
2020-Sep-28 11:25 248 8 gusting 11 23.3
2020-Sep-28 11:20 203 11 gusting 11 23.3
2020-Sep-28 11:15 203 6 gusting 13 23.3
2020-Sep-28 11:10 270 13 gusting 13 23.9
2020-Sep-28 11:00 293 4 gusting 6 23.9
2020-Sep-28 10:55 225 6 gusting 6 23.3
2020-Sep-28 10:45 270 10 gusting 10 22.8
2020-Sep-28 10:40 293 6 gusting 6 22.8
2020-Sep-28 10:35 225 4 gusting 5 22.8
2020-Sep-28 10:30 225 9 gusting 9 22.2
2020-Sep-28 10:25 315 6 gusting 8 22.2
2020-Sep-28 10:20 203 1 gusting 6 22.2
2020-Sep-28 10:15 135 3 gusting 4 22.2
2020-Sep-28 10:10 270 4 gusting 4 22.2
2020-Sep-28 10:05 180 4 gusting 4 22.2
2020-Sep-28 09:55 180 2 gusting 7 22.8
2020-Sep-28 09:50 338 7 gusting 7 22.8
2020-Sep-28 09:40 158 6 gusting 6 22.2
2020-Sep-28 09:35 180 5 gusting 8 22.2
2020-Sep-28 09:25 203 12 gusting 14 22.2
2020-Sep-28 09:20 225 14 gusting 14 22.2
2020-Sep-28 09:15 225 6 gusting 14 21.7
2020-Sep-28 09:10 225 14 gusting 14 21.7
2020-Sep-28 09:05 203 14 gusting 14 21.7
2020-Sep-28 08:55 203 6 gusting 11 21.7
2020-Sep-28 08:50 225 10 gusting 16 21.1
2020-Sep-28 08:45 203 12 gusting 16 21.1
2020-Sep-28 08:40 248 14 gusting 14 21.1
2020-Sep-28 08:35 248 13 gusting 13 21.1
2020-Sep-28 08:25 203 13 gusting 13 21.1
2020-Sep-28 08:20 225 9 gusting 12 21.1
2020-Sep-28 08:10 203 13 gusting 13 20.6
2020-Sep-28 08:05 225 10 gusting 13 20.6
2020-Sep-28 08:00 203 13 gusting 13 20.6
2020-Sep-28 07:55 180 7 gusting 13 20.6
2020-Sep-28 07:50 248 13 gusting 13 20.6
2020-Sep-28 07:40 203 13 gusting 13 20.6
2020-Sep-28 07:35 248 9 gusting 10 20.6
2020-Sep-28 07:30 248 10 gusting 12 20.0
2020-Sep-28 07:25 158 12 gusting 14 20.0
2020-Sep-28 07:20 203 14 gusting 16 20.0
2020-Sep-28 07:15 203 16 gusting 16 20.0
2020-Sep-28 07:10 203 16 gusting 16 20.0
2020-Sep-28 07:05 203 16 gusting 16 20.0
2020-Sep-28 06:55 225 7 gusting 9 20.0
2020-Sep-28 06:50 203 7 gusting 13 20.0
2020-Sep-28 06:45 203 13 gusting 13 20.0
2020-Sep-28 06:40 135 12 gusting 12 19.4
2020-Sep-28 06:35 225 12 gusting 14 19.4
2020-Sep-28 06:25 203 8 gusting 8 19.4
2020-Sep-28 06:20 203 8 gusting 8 19.4
2020-Sep-28 06:15 203 8 gusting 14 19.4
2020-Sep-28 06:10 203 14 gusting 14 19.4
2020-Sep-28 06:05 203 14 gusting 14 19.4
2020-Sep-28 06:00 158 9 gusting 16 19.4
2020-Sep-28 05:55 203 14 gusting 14 19.4
2020-Sep-28 05:50 203 11 gusting 13 19.4
2020-Sep-28 05:40 225 10 gusting 10 19.4
2020-Sep-28 05:35 203 9 gusting 12 19.4
2020-Sep-28 05:25 225 12 gusting 12 18.9
2020-Sep-28 05:15 225 12 gusting 12 18.9
2020-Sep-28 05:10 180 11 gusting 15 18.9
2020-Sep-28 05:05 203 12 gusting 16 18.9
2020-Sep-28 04:55 180 13 gusting 13 18.9
2020-Sep-28 04:45 203 14 gusting 14 18.9
2020-Sep-28 04:40 225 14 gusting 14 18.9
2020-Sep-28 04:35 225 12 gusting 12 18.9
2020-Sep-28 04:25 225 10 gusting 11 18.9
2020-Sep-28 04:20 225 8 gusting 14 18.9
2020-Sep-28 04:10 180 16 gusting 21 18.9
2020-Sep-28 04:00 225 5 gusting 7 18.3
2020-Sep-28 03:55 203 6 gusting 12 18.3
2020-Sep-28 03:50 203 12 gusting 13 18.9
2020-Sep-28 03:40 203 8 gusting 8 18.9
2020-Sep-28 03:35 203 7 gusting 8 18.9
2020-Sep-28 03:25 248 9 gusting 9 18.9
2020-Sep-28 03:20 203 8 gusting 9 18.9
2020-Sep-28 03:10 225 6 gusting 8 18.9
2020-Sep-28 03:05 180 8 gusting 13 18.9
2020-Sep-28 03:00 203 4 gusting 9 18.9
2020-Sep-28 02:55 203 7 gusting 7 18.9
2020-Sep-28 02:45 203 7 gusting 13 18.9
2020-Sep-28 02:40 203 9 gusting 9 18.9
2020-Sep-28 02:35 203 9 gusting 10 18.9
2020-Sep-28 02:30 225 5 gusting 9 18.9
2020-Sep-28 02:25 180 9 gusting 9 18.9
2020-Sep-28 02:20 203 6 gusting 6 19.4
2020-Sep-28 02:15 203 5 gusting 12 19.4
2020-Sep-28 02:10 248 12 gusting 12 19.4
2020-Sep-28 02:05 225 8 gusting 10 19.4
2020-Sep-28 02:00 135 11 gusting 11 19.4
2020-Sep-28 01:55 180 10 gusting 10 19.4
2020-Sep-28 01:45 203 10 gusting 10 19.4
2020-Sep-28 01:40 203 6 gusting 9 19.4
2020-Sep-28 01:35 203 9 gusting 9 19.4
2020-Sep-28 01:25 225 13 gusting 13 19.4
2020-Sep-28 01:15 225 8 gusting 10 19.4
2020-Sep-28 01:10 203 10 gusting 13 19.4
2020-Sep-28 01:05 225 13 gusting 13 19.4
2020-Sep-28 00:55 225 6 gusting 10 19.4
2020-Sep-28 00:50 203 10 gusting 13 19.4
2020-Sep-28 00:45 225 13 gusting 13 19.4
2020-Sep-28 00:40 180 7 gusting 10 19.4
2020-Sep-28 00:35 203 10 gusting 13 19.4
2020-Sep-28 00:30 248 6 gusting 12 19.4
2020-Sep-28 00:20 203 8 gusting 13 19.4
2020-Sep-28 00:10 225 6 gusting 8 19.4
2020-Sep-28 00:00 180 8 gusting 15 19.4
2020-Sep-27 23:55 225 15 gusting 15 19.4
2020-Sep-27 23:45 225 13 gusting 13 19.4
2020-Sep-27 23:40 180 12 gusting 12 19.4
2020-Sep-27 23:30 203 10 gusting 13 19.4
2020-Sep-27 23:25 180 13 gusting 13 19.4
2020-Sep-27 23:15 225 10 gusting 10 19.4
2020-Sep-27 23:10 203 8 gusting 10 19.4
2020-Sep-27 23:05 180 10 gusting 13 19.4
2020-Sep-27 22:55 203 7 gusting 8 19.4
2020-Sep-27 22:50 203 8 gusting 16 19.4
2020-Sep-27 22:45 203 8 gusting 11 19.4
2020-Sep-27 22:40 180 11 gusting 14 19.4
2020-Sep-27 22:35 203 11 gusting 12 19.4
2020-Sep-27 22:30 203 12 gusting 16 19.4
2020-Sep-27 22:20 225 10 gusting 14 19.4
2020-Sep-27 22:15 203 13 gusting 13 19.4
2020-Sep-27 22:10 158 11 gusting 11 19.4
2020-Sep-27 22:05 158 9 gusting 9 19.4
2020-Sep-27 21:55 203 14 gusting 14 19.4
2020-Sep-27 21:45 203 13 gusting 13 19.4
2020-Sep-27 21:40 225 10 gusting 10 19.4
2020-Sep-27 21:35 225 10 gusting 13 19.4
2020-Sep-27 21:30 203 12 gusting 15 19.4
2020-Sep-27 21:25 225 13 gusting 13 19.4
2020-Sep-27 21:15 203 17 gusting 17 19.4
2020-Sep-27 21:10 203 15 gusting 15 20.0
2020-Sep-27 21:05 225 10 gusting 13 20.0
2020-Sep-27 21:00 203 13 gusting 13 20.0
2020-Sep-27 20:55 203 13 gusting 17 20.0
2020-Sep-27 20:50 180 17 gusting 17 20.0
2020-Sep-27 20:40 203 12 gusting 15 20.0
2020-Sep-27 20:30 225 14 gusting 14 20.6
2020-Sep-27 20:25 225 13 gusting 13 20.6
2020-Sep-27 20:20 203 13 gusting 13 20.6
2020-Sep-27 20:15 203 7 gusting 10 20.6
2020-Sep-27 20:05 180 10 gusting 11 20.6
2020-Sep-27 19:55 203 8 gusting 11 20.6
2020-Sep-27 19:45 203 8 gusting 8 20.6
2020-Sep-27 19:40 203 8 gusting 14 20.6
2020-Sep-27 19:35 248 7 gusting 9 20.6
2020-Sep-27 19:25 180 9 gusting 15 20.6
2020-Sep-27 19:20 225 7 gusting 12 20.6
2020-Sep-27 19:15 203 6 gusting 16 20.6
2020-Sep-27 19:10 180 10 gusting 16 20.6
2020-Sep-27 19:05 203 16 gusting 16 20.6
2020-Sep-27 18:55 180 13 gusting 13 20.6
2020-Sep-27 18:45 203 13 gusting 13 20.6
2020-Sep-27 18:40 248 9 gusting 13 20.6
2020-Sep-27 18:35 180 13 gusting 13 20.6
2020-Sep-27 18:25 180 15 gusting 15 20.6
2020-Sep-27 18:20 158 13 gusting 18 20.6
2020-Sep-27 18:10 180 9 gusting 9 20.6
2020-Sep-27 18:05 158 5 gusting 14 21.1
2020-Sep-27 17:55 225 13 gusting 19 20.6
2020-Sep-27 17:50 180 13 gusting 13 20.0
2020-Sep-27 17:40 225 19 gusting 19 19.4
2020-Sep-27 17:35 225 16 gusting 16 19.4
2020-Sep-27 17:30 203 14 gusting 20 19.4
2020-Sep-27 17:25 203 10 gusting 14 19.4
2020-Sep-27 17:20 203 14 gusting 16 19.4
2020-Sep-27 17:15 203 16 gusting 16 18.9
2020-Sep-27 17:10 203 12 gusting 15 18.9
2020-Sep-27 17:05 203 15 gusting 15 18.9
2020-Sep-27 17:00 225 26 gusting 26 19.4
2020-Sep-27 16:55 225 4 gusting 15 21.1
2020-Sep-27 16:50 203 15 gusting 15 22.8
2020-Sep-27 16:45 248 6 gusting 7 22.8
2020-Sep-27 16:40 225 7 gusting 7 21.7
2020-Sep-27 16:35 248 4 gusting 6 21.7
2020-Sep-27 16:30 225 3 gusting 13 21.7
2020-Sep-27 16:25 203 13 gusting 13 21.7
2020-Sep-27 16:15 293 13 gusting 14 21.7
2020-Sep-27 16:10 225 5 gusting 6 22.2
2020-Sep-27 16:05 270 6 gusting 6 22.2
2020-Sep-27 16:00 270 3 gusting 10 22.2
2020-Sep-27 15:55 248 2 gusting 7 22.2
2020-Sep-27 15:50 225 4 gusting 9 22.8
2020-Sep-27 15:45 338 8 gusting 11 23.3
2020-Sep-27 15:40 293 13 gusting 13 25.0
2020-Sep-27 15:35 203 2 gusting 6 25.0
2020-Sep-27 15:25 068 1 gusting 1 24.4
2020-Sep-27 15:15 068 25.0
2020-Sep-27 15:10 135 25.0
2020-Sep-27 15:05 158 3 gusting 3 25.0
2020-Sep-27 14:55 023 1 gusting 1 25.0
2020-Sep-27 14:50 158 1 gusting 4 25.0
2020-Sep-27 14:40 248 1 gusting 2 24.4
2020-Sep-27 14:35 023 1 gusting 8 24.4
2020-Sep-27 14:30 203 0 gusting 2 24.4
2020-Sep-27 14:25 135 2 gusting 10 24.4
2020-Sep-27 14:20 045 1 gusting 1 24.4
2020-Sep-27 14:15 068 24.4
2020-Sep-27 14:10 113 25.0
2020-Sep-27 14:05 068 1 gusting 4 25.0
2020-Sep-27 14:00 180 4 gusting 6 25.6
2020-Sep-27 13:55 158 6 gusting 12 25.6
2020-Sep-27 13:50 203 1 gusting 6 25.6
2020-Sep-27 13:45 158 6 gusting 6 25.6
2020-Sep-27 13:40 180 0 gusting 5 25.0
2020-Sep-27 13:35 180 3 gusting 3 25.0
2020-Sep-27 13:30 270 1 gusting 2 25.0
2020-Sep-27 13:25 270 0 gusting 1 25.0
2020-Sep-27 13:20 135 1 gusting 1 25.0
2020-Sep-27 13:15 24.4
2020-Sep-27 13:10 023 0 gusting 0 24.4
2020-Sep-27 13:00 135 1 gusting 5 24.4
2020-Sep-27 12:55 113 5 gusting 5 24.4
2020-Sep-27 12:45 225 0 gusting 6 24.4
2020-Sep-27 12:40 090 0 gusting 4 25.0
2020-Sep-27 12:30 203 1 gusting 1 25.6
2020-Sep-27 12:25 203 1 gusting 5 25.6
2020-Sep-27 12:15 113 25.6
2020-Sep-27 12:10 270 4 gusting 4 25.6
2020-Sep-27 12:00 045 5 gusting 5 25.6
2020-Sep-27 11:55 158 25.0
2020-Sep-27 11:45 180 6 gusting 6 25.0
2020-Sep-27 11:40 068 2 gusting 6 24.4
2020-Sep-27 11:35 113 1 gusting 14 24.4
2020-Sep-27 11:25 113 3 gusting 18 24.4
2020-Sep-27 11:20 180 18 gusting 18 24.4
2020-Sep-27 11:15 338 1 gusting 12 23.9
2020-Sep-27 11:10 180 2 gusting 3 23.9
2020-Sep-27 11:05 180 3 gusting 10 23.9
2020-Sep-27 11:00 225 9 gusting 9 23.9
2020-Sep-27 10:55 225 9 gusting 15 23.9
2020-Sep-27 10:50 158 1 gusting 10 23.9
2020-Sep-27 10:45 158 7 gusting 11 23.9
2020-Sep-27 10:35 180 6 gusting 17 23.9
2020-Sep-27 10:30 225 17 gusting 18 23.9
2020-Sep-27 10:25 248 16 gusting 16 24.4
2020-Sep-27 10:15 158 6 gusting 8 25.0
2020-Sep-27 10:10 248 8 gusting 13 25.0
2020-Sep-27 10:05 225 6 gusting 8 25.0
2020-Sep-27 09:55 180 8 gusting 16 24.4
2020-Sep-27 09:50 293 3 gusting 8 24.4
2020-Sep-27 09:45 203 7 gusting 14 24.4
2020-Sep-27 09:40 225 2 gusting 5 25.0
2020-Sep-27 09:35 203 5 gusting 7 24.4
2020-Sep-27 09:30 203 7 gusting 17 24.4
2020-Sep-27 09:25 135 4 gusting 4 24.4
2020-Sep-27 09:20 225 0 gusting 5 24.4
2020-Sep-27 09:15 203 3 gusting 3 25.0
2020-Sep-27 09:10 068 0 gusting 0 24.4
2020-Sep-27 09:00 180 2 gusting 13 24.4
2020-Sep-27 08:55 180 13 gusting 15 24.4
2020-Sep-27 08:50 180 15 gusting 15 24.4
2020-Sep-27 08:40 225 12 gusting 12 23.9
2020-Sep-27 08:35 23.3
2020-Sep-27 08:25 293 23.3
2020-Sep-27 08:15 068 2 gusting 2 22.8
2020-Sep-27 08:10 045 1 gusting 1 22.8
2020-Sep-27 08:05 090 22.2
2020-Sep-27 07:55 22.2
2020-Sep-27 07:50 338 1 gusting 1 22.2
2020-Sep-27 07:40 045 2 gusting 6 21.7
2020-Sep-27 07:35 045 1 gusting 2 21.7
2020-Sep-27 07:25 090 1 gusting 3 21.1
2020-Sep-27 07:20 068 1 gusting 1 21.1
2020-Sep-27 07:15 045 0 gusting 2 20.6
2020-Sep-27 07:10 068 0 gusting 0 20.6
2020-Sep-27 07:00 090 2 gusting 2 20.6
2020-Sep-27 06:55 090 20.6
2020-Sep-27 06:50 180 20.6
2020-Sep-27 06:45 158 1 gusting 5 20.6
2020-Sep-27 06:35 248 3 gusting 6 20.6
2020-Sep-27 06:25 180 6 gusting 10 21.1
2020-Sep-27 06:20 248 7 gusting 8 21.1
2020-Sep-27 06:15 180 5 gusting 7 21.1
2020-Sep-27 06:10 203 3 gusting 6 20.6
2020-Sep-27 06:05 203 4 gusting 4 20.6
2020-Sep-27 06:00 180 2 gusting 12 20.6
2020-Sep-27 05:55 270 4 gusting 7 20.6
2020-Sep-27 05:45 180 4 gusting 6 20.6
2020-Sep-27 05:40 158 20.0
2020-Sep-27 05:35 225 2 gusting 6 20.0
2020-Sep-27 05:25 225 5 gusting 5 20.0
2020-Sep-27 05:20 203 5 gusting 8 20.0
2020-Sep-27 05:10 180 7 gusting 9 20.0
2020-Sep-27 05:05 203 8 gusting 8 19.4
2020-Sep-27 04:55 203 9 gusting 10 19.4
2020-Sep-27 04:50 180 6 gusting 9 20.0
2020-Sep-27 04:45 203 9 gusting 11 20.0
2020-Sep-27 04:40 180 6 gusting 12 20.0
2020-Sep-27 04:30 203 6 gusting 8 20.0
2020-Sep-27 04:25 225 3 gusting 12 20.0
2020-Sep-27 04:15 225 7 gusting 12 19.4
2020-Sep-27 04:10 203 6 gusting 7 19.4
2020-Sep-27 04:05 248 7 gusting 8 19.4
2020-Sep-27 03:55 180 10 gusting 10 19.4
2020-Sep-27 03:50 203 8 gusting 8 19.4
2020-Sep-27 03:45 225 8 gusting 9 19.4
2020-Sep-27 03:40 225 9 gusting 9 19.4
2020-Sep-27 03:35 248 4 gusting 7 19.4
2020-Sep-27 03:25 203 9 gusting 9 19.4
2020-Sep-27 03:20 203 5 gusting 7 19.4
2020-Sep-27 03:15 180 7 gusting 7 18.9
2020-Sep-27 03:10 203 6 gusting 6 18.9
2020-Sep-27 03:05 203 4 gusting 9 18.9
2020-Sep-27 03:00 225 6 gusting 6 18.9
2020-Sep-27 02:55 225 5 gusting 5 18.9
2020-Sep-27 02:50 203 5 gusting 5 19.4
2020-Sep-27 02:45 180 5 gusting 15 19.4
2020-Sep-27 02:40 225 15 gusting 15 19.4
2020-Sep-27 02:35 203 6 gusting 12 19.4
2020-Sep-27 02:25 203 8 gusting 12 19.4
2020-Sep-27 02:20 203 12 gusting 12 19.4
2020-Sep-27 02:10 203 7 gusting 8 19.4
2020-Sep-27 02:00 203 5 gusting 10 19.4
2020-Sep-27 01:55 203 10 gusting 14 19.4
2020-Sep-27 01:45 180 12 gusting 14 19.4
2020-Sep-27 01:40 180 9 gusting 10 19.4
2020-Sep-27 01:30 225 12 gusting 14 19.4
2020-Sep-27 01:25 180 9 gusting 9 19.4
2020-Sep-27 01:20 248 9 gusting 13 19.4
2020-Sep-27 01:15 203 8 gusting 12 19.4
2020-Sep-27 01:10 203 12 gusting 12 19.4
2020-Sep-27 01:05 225 11 gusting 13 19.4
2020-Sep-27 01:00 203 17 gusting 17 19.4
2020-Sep-27 00:55 180 9 gusting 14 19.4
2020-Sep-27 00:45 203 12 gusting 12 19.4
2020-Sep-27 00:40 203 9 gusting 12 19.4
2020-Sep-27 00:30 203 12 gusting 13 19.4
2020-Sep-27 00:25 225 8 gusting 10 19.4
2020-Sep-27 00:15 180 12 gusting 12 19.4
2020-Sep-27 00:10 180 13 gusting 13 19.4
2020-Sep-27 00:05 203 10 gusting 12 19.4
2020-Sep-27 00:00 225 12 gusting 12 19.4
2020-Sep-26 23:55 203 12 gusting 16 19.4
2020-Sep-26 23:50 203 8 gusting 15 19.4
2020-Sep-26 23:40 180 13 gusting 16 20.0
2020-Sep-26 23:35 225 10 gusting 11 20.0
2020-Sep-26 23:30 203 11 gusting 15 20.0
2020-Sep-26 23:25 225 15 gusting 15 19.4
2020-Sep-26 23:20 225 13 gusting 13 19.4
2020-Sep-26 23:15 225 12 gusting 14 20.0
2020-Sep-26 23:10 248 12 gusting 13 20.0
2020-Sep-26 23:05 203 11 gusting 14 20.0
2020-Sep-26 22:55 180 12 gusting 16 20.0
2020-Sep-26 22:45 180 14 gusting 14 19.4
2020-Sep-26 22:40 180 13 gusting 20 19.4
2020-Sep-26 22:35 225 10 gusting 13 20.0
2020-Sep-26 22:30 203 13 gusting 13 20.0
2020-Sep-26 22:25 203 13 gusting 14 20.0
2020-Sep-26 22:20 225 10 gusting 11 20.0
2020-Sep-26 22:10 203 12 gusting 18 20.0
2020-Sep-26 22:05 225 15 gusting 15 20.0
2020-Sep-26 22:00 203 13 gusting 14 20.0
2020-Sep-26 21:55 180 13 gusting 15 20.0
2020-Sep-26 21:50 180 15 gusting 15 20.0
2020-Sep-26 21:45 203 15 gusting 15 20.0
2020-Sep-26 21:40 203 15 gusting 15 20.0
2020-Sep-26 21:35 203 12 gusting 12 20.0
2020-Sep-26 21:30 225 12 gusting 12 20.6
2020-Sep-26 21:25 203 12 gusting 18 20.0
2020-Sep-26 21:20 225 10 gusting 14 20.0
2020-Sep-26 21:15 180 14 gusting 19 20.0
2020-Sep-26 21:10 225 13 gusting 14 20.0
2020-Sep-26 21:05 158 14 gusting 14 20.0
2020-Sep-26 20:55 203 15 gusting 15 20.0
2020-Sep-26 20:50 180 14 gusting 14 20.0
2020-Sep-26 20:45 225 12 gusting 17 20.0
2020-Sep-26 20:40 203 17 gusting 17 20.0
2020-Sep-26 20:35 203 15 gusting 15 20.0
2020-Sep-26 20:30 180 15 gusting 21 20.0
2020-Sep-26 20:25 248 16 gusting 16 20.0
2020-Sep-26 20:20 225 15 gusting 15 20.0
2020-Sep-26 20:10 135 10 gusting 10 20.0
2020-Sep-26 20:05 225 8 gusting 8 20.0
2020-Sep-26 19:55 225 6 gusting 10 20.0
2020-Sep-26 19:45 225 9 gusting 10 20.0
2020-Sep-26 19:40 203 10 gusting 10 20.0
2020-Sep-26 19:35 203 6 gusting 12 20.0
2020-Sep-26 19:30 180 12 gusting 12 20.0
2020-Sep-26 19:25 203 10 gusting 12 20.0
2020-Sep-26 19:15 203 9 gusting 12 20.0
2020-Sep-26 19:10 180 12 gusting 12 20.0
2020-Sep-26 19:05 203 10 gusting 12 20.0
2020-Sep-26 19:00 180 10 gusting 11 20.0
2020-Sep-26 18:55 225 10 gusting 10 20.0
2020-Sep-26 18:50 180 11 gusting 12 20.0
2020-Sep-26 18:45 225 9 gusting 14 20.0
2020-Sep-26 18:40 225 14 gusting 16 20.6
2020-Sep-26 18:35 203 14 gusting 14 20.6
2020-Sep-26 18:25 225 14 gusting 14 20.6
2020-Sep-26 18:15 203 13 gusting 13 20.6
2020-Sep-26 18:10 225 12 gusting 12 20.6
2020-Sep-26 18:05 180 13 gusting 13 20.6
2020-Sep-26 18:00 225 13 gusting 14 20.6
2020-Sep-26 17:55 248 14 gusting 18 20.6
2020-Sep-26 17:50 203 18 gusting 18 20.6
2020-Sep-26 17:40 225 8 gusting 11 20.6
2020-Sep-26 17:35 248 10 gusting 13 21.1
2020-Sep-26 17:30 248 10 gusting 10 21.1
2020-Sep-26 17:25 225 10 gusting 16 21.1
2020-Sep-26 17:15 248 10 gusting 10 21.1
2020-Sep-26 17:10 180 6 gusting 13 21.1
2020-Sep-26 17:05 203 9 gusting 9 21.1
2020-Sep-26 17:00 225 9 gusting 12 21.1
2020-Sep-26 16:55 225 12 gusting 13 21.1
2020-Sep-26 16:50 248 10 gusting 10 21.1
2020-Sep-26 16:40 180 14 gusting 14 21.7
2020-Sep-26 16:30 270 8 gusting 10 21.7
2020-Sep-26 16:25 225 9 gusting 9 21.7
2020-Sep-26 16:20 180 4 gusting 7 21.7
2020-Sep-26 16:15 315 7 gusting 7 21.7
2020-Sep-26 16:10 023 6 gusting 13 21.7
2020-Sep-26 16:05 225 13 gusting 17 21.7
2020-Sep-26 15:55 338 9 gusting 9 21.7
2020-Sep-26 15:50 225 5 gusting 8 21.7
2020-Sep-26 15:45 225 5 gusting 6 21.7
2020-Sep-26 15:40 203 6 gusting 12 21.7
2020-Sep-26 15:30 158 6 gusting 8 21.7
2020-Sep-26 15:25 338 6 gusting 7 21.7
2020-Sep-26 15:20 225 16 gusting 16 21.7
2020-Sep-26 15:15 270 5 gusting 8 21.7
2020-Sep-26 15:10 203 8 gusting 12 21.7
2020-Sep-26 15:05 248 5 gusting 13 21.7